| time (UTC) | temp C | wind direction | speed KPH | gust KPH | rain 1hr cm | rain 24hr cm | rain mn cm | humidity % | barometer mb |
| 20260506224019 | 9 | 0.0 | 0.0 | 0.00 | 0.76 | 0.00 | 92 | 1012.1 | |
| 20260506223020 | 9 | 0.0 | 0.0 | 0.00 | 0.79 | 0.00 | 92 | 1012.1 | |
| 20260506222024 | 9 | 0.0 | 0.0 | 0.00 | 0.81 | 0.00 | 92 | 1012.0 | |
| 20260506221042 | 9 | 0.0 | 0.0 | 0.00 | 0.86 | 0.00 | 92 | 1011.9 | |
| 20260506220020 | 9 | 0.0 | 0.0 | 0.00 | 0.86 | 0.00 | 92 | 1011.8 | |
| 20260506215038 | 9 | 0.0 | 0.0 | 0.00 | 0.89 | 0.89 | 92 | 1011.8 | |
| 20260506214035 | 9 | 0.0 | 0.0 | 0.00 | 0.89 | 0.89 | 92 | 1011.7 | |
| 20260506213019 | 9 | 0.0 | 0.0 | 0.00 | 0.91 | 0.89 | 92 | 1011.6 | |
| 20260506212045 | 9 | 0.0 | 0.0 | 0.00 | 0.91 | 0.89 | 92 | 1011.6 | |
| 20260506211021 | 9 | 0.0 | 0.0 | 0.00 | 0.94 | 0.89 | 91 | 1011.5 | |
| 20260506210026 | 9 | 0.0 | 0.0 | 0.00 | 0.99 | 0.89 | 91 | 1011.4 | |
| 20260506205018 | 9 | 0.0 | 0.0 | 0.00 | 0.99 | 0.89 | 90 | 1011.3 | |
| 20260506204021 | 10 | 0.0 | 0.0 | 0.00 | 1.04 | 0.89 | 90 | 1011.3 | |
| 20260506203023 | 10 | 0.0 | 0.0 | 0.00 | 1.07 | 0.89 | 89 | 1011.3 | |
| 20260506202023 | 10 | 0.0 | 0.0 | 0.00 | 1.09 | 0.89 | 88 | 1011.3 | |
| 20260506201021 | 10 | 0.0 | 0.0 | 0.00 | 1.14 | 0.89 | 87 | 1011.2 | |
| 20260506200016 | 10 | 0.0 | 0.0 | 0.00 | 1.17 | 0.89 | 86 | 1011.1 | |
| 20260506195020 | 10 | 0.0 | 0.0 | 0.00 | 1.17 | 0.89 | 85 | 1010.9 | |
| 20260506194019 | 10 | 0.0 | 0.0 | 0.00 | 1.22 | 0.89 | 85 | 1010.8 | |
| 20260506193019 | 10 | 0.0 | 0.0 | 0.00 | 1.24 | 0.89 | 84 | 1010.7 | |
| 20260506192042 | 10 | 0.0 | 0.0 | 0.00 | 1.27 | 0.89 | 82 | 1010.6 | |
| 20260506191023 | 10 | 0.0 | 0.0 | 0.00 | 1.30 | 0.89 | 81 | 1010.6 | |
| 20260506190024 | 11 | 0.0 | 0.0 | 0.00 | 1.32 | 0.89 | 81 | 1010.4 | |
| 20260506185024 | 11 | 0.0 | 0.0 | 0.00 | 1.35 | 0.89 | 79 | 1010.4 | |
| 20260506184100 | 11 | 0.0 | 0.0 | 0.00 | 1.37 | 0.89 | 78 | 1010.3 | |
| 20260506183017 | 11 | 0.0 | 0.0 | 0.00 | 1.37 | 0.89 | 77 | 1010.2 | |
| 20260506182040 | 12 | 0.0 | 0.0 | 0.00 | 1.40 | 0.89 | 77 | 1010.1 | |
| 20260506181022 | 12 | 0.0 | 0.0 | 0.00 | 1.40 | 0.89 | 76 | 1009.9 | |
| 20260506180055 | 12 | 0.0 | 0.0 | 0.00 | 1.42 | 0.89 | 78 | 1009.8 | |
| 20260506175020 | 12 | 0.0 | 0.0 | 0.00 | 1.45 | 0.89 | 78 | 1009.7 | |
| 20260506174023 | 12 | 0.0 | 0.0 | 0.00 | 1.45 | 0.89 | 79 | 1009.5 | |
| 20260506173022 | 12 | 0.0 | 0.0 | 0.00 | 1.45 | 0.89 | 80 | 1009.4 | |
| 20260506172046 | 12 | 0.0 | 0.0 | 0.00 | 1.45 | 0.89 | 79 | 1009.3 | |
| 20260506171055 | 12 | 0.0 | 0.0 | 0.00 | 1.45 | 0.89 | 79 | 1009.2 | |
| 20260506170019 | 12 | 0.0 | 0.0 | 0.00 | 1.45 | 0.89 | 78 | 1009.2 | |
| 20260506165026 | 12 | 0.0 | 0.0 | 0.00 | 1.45 | 0.89 | 78 | 1009.1 | |
| 20260506164043 | 12 | 0.0 | 0.0 | 0.00 | 1.45 | 0.89 | 78 | 1009.0 | |
| 20260506163023 | 12 | 0.0 | 0.0 | 0.00 | 1.45 | 0.89 | 76 | 1009.0 | |
| 20260506162024 | 13 | 0.0 | 0.0 | 0.00 | 1.45 | 0.89 | 75 | 1009.1 | |
| 20260506161020 | 13 | 0.0 | 0.0 | 0.00 | 1.45 | 0.89 | 76 | 1009.1 | |
| 20260506160018 | 13 | 0.0 | 0.0 | 0.00 | 1.45 | 0.89 | 74 | 1009.1 | |
| 20260506155018 | 13 | 0.0 | 0.0 | 0.00 | 1.45 | 0.89 | 74 | 1008.9 | |
| 20260506154021 | 14 | 0.0 | 0.0 | 0.00 | 1.45 | 0.89 | 75 | 1008.9 | |
| 20260506153017 | 14 | 0.0 | 0.0 | 0.00 | 1.45 | 0.89 | 76 | 1008.9 | |
| 20260506152020 | 14 | 0.0 | 0.0 | 0.00 | 1.45 | 0.89 | 77 | 1008.9 | |
| 20260506151017 | 14 | 0.0 | 0.0 | 0.00 | 1.45 | 0.89 | 81 | 1008.8 | |
| 20260506150025 | 13 | 0.0 | 0.0 | 0.00 | 1.45 | 0.89 | 84 | 1008.7 | |
| 20260506145026 | 13 | 0.0 | 0.0 | 0.00 | 1.45 | 0.89 | 84 | 1008.8 | |
| 20260506144038 | 13 | 0.0 | 0.0 | 0.00 | 1.45 | 0.89 | 86 | 1008.7 | |
| 20260506143018 | 13 | 0.0 | 0.0 | 0.00 | 1.45 | 0.89 | 88 | 1008.8 | |
| 20260506142041 | 13 | 0.0 | 0.0 | 0.00 | 1.45 | 0.89 | 87 | 1008.8 | |
| 20260506141118 | 12 | 0.0 | 0.0 | 0.00 | 1.45 | 0.89 | 85 | 1008.8 | |
| 20260506140021 | 12 | 0.0 | 0.0 | 0.00 | 1.45 | 0.89 | 88 | 1008.8 | |
| 20260506135024 | 12 | 0.0 | 0.0 | 0.00 | 1.45 | 0.89 | 90 | 1008.8 | |
| 20260506134019 | 12 | 0.0 | 0.0 | 0.00 | 1.45 | 0.89 | 90 | 1008.8 | |
| 20260506133022 | 12 | 0.0 | 0.0 | 0.00 | 1.45 | 0.89 | 90 | 1008.8 | |
| 20260506132022 | 12 | 0.0 | 0.0 | 0.00 | 1.45 | 0.89 | 90 | 1008.8 | |
| 20260506131045 | 12 | 0.0 | 0.0 | 0.00 | 1.45 | 0.89 | 92 | 1008.7 | |
| 20260506130019 | 12 | 0.0 | 0.0 | 0.00 | 1.45 | 0.89 | 93 | 1008.7 | |
| 20260506125017 | 11 | 0.0 | 0.0 | 0.00 | 1.45 | 0.89 | 93 | 1008.6 | |
| 20260506124038 | 11 | 0.0 | 0.0 | 0.00 | 1.45 | 0.89 | 92 | 1008.5 | |
| 20260506123026 | 11 | 0.0 | 0.0 | 0.03 | 1.45 | 0.89 | 92 | 1008.5 | |
| 20260506122018 | 11 | 0.0 | 0.0 | 0.03 | 1.45 | 0.89 | 92 | 1008.5 | |
| 20260506121022 | 11 | 0.0 | 0.0 | 0.03 | 1.45 | 0.89 | 92 | 1008.5 | |
| 20260506120022 | 11 | 0.0 | 0.0 | 0.03 | 1.45 | 0.89 | 92 | 1008.5 | |
| 20260506115024 | 11 | 0.0 | 0.0 | 0.03 | 1.45 | 0.89 | 90 | 1008.5 | |
| 20260506114020 | 11 | 0.0 | 0.0 | 0.03 | 1.45 | 0.89 | 88 | 1008.5 | |
| 20260506113019 | 11 | 0.0 | 0.0 | 0.00 | 1.45 | 0.86 | 88 | 1008.5 | |
| 20260506112018 | 11 | 0.0 | 0.0 | 0.00 | 1.45 | 0.86 | 88 | 1008.6 | |
| 20260506111037 | 11 | 0.0 | 0.0 | 0.00 | 1.45 | 0.86 | 88 | 1008.6 | |
| 20260506110027 | 10 | 0.0 | 0.0 | 0.00 | 1.45 | 0.86 | 88 | 1008.6 | |
| 20260506105035 | 10 | 0.0 | 0.0 | 0.00 | 1.45 | 0.86 | 88 | 1008.6 | |
| 20260506104016 | 10 | 0.0 | 0.0 | 0.00 | 1.45 | 0.86 | 88 | 1008.7 | |
| 20260506103017 | 10 | 0.0 | 0.0 | 0.00 | 1.45 | 0.86 | 88 | 1008.7 | |
| 20260506102022 | 10 | 0.0 | 0.0 | 0.00 | 1.45 | 0.86 | 88 | 1008.6 | |
| 20260506101018 | 10 | 0.0 | 0.0 | 0.00 | 1.45 | 0.86 | 88 | 1008.5 | |
| 20260506100038 | 10 | 0.0 | 0.0 | 0.00 | 1.45 | 0.86 | 88 | 1008.4 | |
| 20260506095027 | 10 | 0.0 | 0.0 | 0.03 | 1.45 | 0.86 | 88 | 1008.3 | |
| 20260506094026 | 10 | 0.0 | 0.0 | 0.03 | 1.45 | 0.86 | 88 | 1008.3 | |
| 20260506093107 | 9 | 0.0 | 0.0 | 0.03 | 1.45 | 0.86 | 88 | 1008.2 | |
| 20260506092019 | 9 | 0.0 | 0.0 | 0.03 | 1.45 | 0.86 | 88 | 1008.2 | |
| 20260506091021 | 9 | 0.0 | 0.0 | 0.03 | 1.45 | 0.86 | 88 | 1008.1 | |
| 20260506090026 | 9 | 0.0 | 0.0 | 0.03 | 1.45 | 0.86 | 88 | 1008.0 | |
| 20260506085022 | 9 | 0.0 | 0.0 | 0.00 | 1.45 | 0.84 | 88 | 1007.9 | |
| 20260506084018 | 9 | 0.0 | 0.0 | 0.00 | 1.45 | 0.84 | 88 | 1007.9 | |
| 20260506083021 | 9 | 0.0 | 0.0 | 0.00 | 1.45 | 0.84 | 88 | 1007.8 | |
| 20260506082017 | 9 | 0.0 | 0.0 | 0.03 | 1.47 | 0.84 | 88 | 1007.7 | |
| 20260506081029 | 9 | 0.0 | 0.0 | 0.03 | 1.47 | 0.84 | 88 | 1007.7 | |
| 20260506073018 | 9 | 0.0 | 0.0 | 0.05 | 1.47 | 0.84 | 88 | 1007.4 | |
| 20260506072016 | 9 | 0.0 | 0.0 | 0.05 | 1.45 | 0.81 | 88 | 1007.3 | |
| 20260506071021 | 8 | 0.0 | 0.0 | 0.05 | 1.45 | 0.81 | 88 | 1007.3 | |
| 20260506062019 | 8 | 0.0 | 0.0 | 0.05 | 1.45 | 0.79 | 88 | 1007.1 | |
| 20260506061015 | 8 | 0.0 | 0.0 | 0.08 | 1.45 | 0.79 | 88 | 1007.0 | |
| 20260506051021 | 8 | 0.0 | 0.0 | 0.03 | 1.37 | 0.71 | 88 | 1007.0 | |
| 20260506045034 | 8 | 0.0 | 0.0 | 0.03 | 1.45 | 0.71 | 88 | 1006.9 | |
| 20260506044016 | 8 | 0.0 | 0.0 | 0.03 | 1.45 | 0.71 | 88 | 1006.9 | |
| 20260506043017 | 8 | 0.0 | 0.0 | 0.03 | 1.45 | 0.71 | 88 | 1006.9 | |
| 20260506042020 | 8 | 0.0 | 0.0 | 0.05 | 1.50 | 0.71 | 88 | 1006.9 | |
| 20260506041042 | 8 | 0.0 | 0.0 | 0.03 | 1.47 | 0.69 | 88 | 1006.9 | |
| 20260506040018 | 8 | 0.0 | 0.0 | 0.05 | 1.47 | 0.69 | 88 | 1006.9 | |
| 20260506035019 | 8 | 0.0 | 0.0 | 0.05 | 1.47 | 0.69 | 88 | 1007.0 | |
| 20260506034018 | 8 | 0.0 | 0.0 | 0.05 | 1.47 | 0.69 | 88 | 1007.0 | |
| 20260506033017 | 8 | 0.0 | 0.0 | 0.08 | 1.50 | 0.69 | 88 | 1007.1 | |
| 20260506032016 | 8 | 0.0 | 0.0 | 0.05 | 1.47 | 0.66 | 88 | 1007.1 | |
| 20260506031021 | 8 | 0.0 | 0.0 | 0.08 | 1.50 | 0.66 | 88 | 1007.2 | |
| 20260506030016 | 8 | 0.0 | 0.0 | 0.05 | 1.52 | 0.64 | 88 | 1007.2 | |
| 20260506025020 | 8 | 0.0 | 0.0 | 0.08 | 1.52 | 0.64 | 88 | 1007.3 | |
| 20260506024017 | 8 | 0.0 | 0.0 | 0.05 | 1.50 | 0.61 | 88 | 1007.4 | |
| 20260506023039 | 8 | 0.0 | 0.0 | 0.05 | 1.50 | 0.61 | 88 | 1007.4 | |
| 20260506022025 | 8 | 0.0 | 0.0 | 0.10 | 1.52 | 0.61 | 88 | 1007.4 | |
| 20260506021024 | 8 | 0.0 | 0.0 | 0.10 | 1.52 | 0.58 | 88 | 1007.4 | |
| 20260506020027 | 8 | 0.0 | 0.0 | 0.13 | 1.52 | 0.58 | 88 | 1007.4 | |
| 20260506015044 | 9 | 0.0 | 0.0 | 0.13 | 1.50 | 0.56 | 88 | 1007.5 | |
| 20260506014025 | 9 | 0.0 | 0.0 | 0.13 | 1.50 | 0.56 | 88 | 1007.5 | |
| 20260506013025 | 9 | 0.0 | 0.0 | 0.13 | 1.47 | 0.53 | 88 | 1007.5 | |
| 20260506012021 | 9 | 0.0 | 0.0 | 0.13 | 1.45 | 0.51 | 88 | 1007.5 | |
| 20260506011020 | 9 | 0.0 | 0.0 | 0.13 | 1.42 | 0.48 | 88 | 1007.5 | |
| 20260506010018 | 9 | 0.0 | 0.0 | 0.13 | 1.40 | 0.46 | 88 | 1007.6 | |
| 20260506005021 | 9 | 0.0 | 0.0 | 0.15 | 1.37 | 0.43 | 88 | 1007.6 | |
| 20260506004018 | 9 | 0.0 | 0.0 | 0.15 | 1.37 | 0.43 | 88 | 1007.7 | |
| 20260506003017 | 9 | 0.0 | 0.0 | 0.15 | 1.37 | 0.43 | 88 | 1007.7 | |
| 20260506002017 | 9 | 0.0 | 0.0 | 0.15 | 1.32 | 0.38 | 88 | 1007.8 | |
| 20260506001018 | 9 | 0.0 | 0.0 | 0.15 | 1.30 | 0.36 | 88 | 1007.9 | |
| 20260506000024 | 10 | 0.0 | 0.0 | 0.15 | 1.30 | 0.33 | 88 | 1008.0 | |
| 20260505235021 | 10 | 0.0 | 0.0 | 0.15 | 1.27 | 0.30 | 88 | 1008.1 | |
| 20260505234038 | 10 | 0.0 | 0.0 | 0.15 | 1.24 | 0.28 | 88 | 1008.1 | |
| 20260505233022 | 10 | 0.0 | 0.0 | 0.18 | 1.22 | 0.25 | 88 | 1008.1 | |
| 20260505232046 | 10 | 0.0 | 0.0 | 0.18 | 1.19 | 0.23 | 88 | 1008.2 | |
| 20260505231044 | 10 | 0.0 | 0.0 | 0.20 | 1.17 | 0.23 | 88 | 1008.2 | |
| 20260505230020 | 10 | 0.0 | 0.0 | 0.15 | 1.14 | 0.18 | 88 | 1008.3 | |
| 20260505225038 | 10 | 0.0 | 0.0 | 0.15 | 1.12 | 0.15 | 88 | 1008.3 |